Denton, TX

7:29 PM CST on December 05, 2016 (GMT -0600)
Denton Municipal

Weather History for KDTO - December, 2012

Change the Weather History Date:

Monday, December 17, 2012

  Actual Average Record
Temperature  
Mean Temperature 48 °F -  
Max Temperature 59 °F 53 °F 77 °F (2006)
Min Temperature 37 °F 31 °F 21 °F (1996)
Degree Days  
Heating Degree Days 17    
Moisture  
Dew Point 34 °F    
Average Humidity 64    
Maximum Humidity 89    
Minimum Humidity 39    
Precipitation  
Precipitation 0.00 in - - ()
Sea Level Pressure  
Sea Level Pressure 29.85 in    
Wind  
Wind Speed 6 mph (West)    
Max Wind Speed 12 mph    
Max Gust Speed 16 mph    
Visibility 9 miles    
Events      
Averages and records for this station are not official NWS values.
T = Trace of Precipitation, MM = Missing Value Source: NWS Daily Summary

Daily Weather History Graph

Daily Weather History Graph

Search for Another Location

Airport or City:

Trip Planner

Search our weather history database for the weather conditions in past years. The results will help you decide how hot, cold, wet, or windy it might be!

Date:

Astronomy

Dec. 17, 2012 Rise Set
Actual Time 7:26 AM CST 5:24 PM CST
Civil Twilight 6:58 AM CST 5:51 PM CST
Nautical Twilight 6:27 AM CST 6:22 PM CST
Astronomical Twilight 5:57 AM CST 6:52 PM CST
Moon 10:48 AM CST (12/17) 10:32 PM CST (12/17)
Length of Visible Light 10h 52m
Length of Day
9h 57m
Waxing Crescent, 25% of the Moon is Illuminated
Dec 17
Waxing Crescent
Dec 19
First Quarter
Dec 28
Full
Jan 4
Last Quarter
Jan 11
New

Hourly Weather History & Observations

Time (CST) Temp. Windchill Dew Point Humidity Pressure Visibility Wind Dir Wind Speed Gust Speed Precip Events Conditions
12:53 AM 48.0 °F - 33.1 °F 56% 29.76 in 10.0 mi West 5.8 mph - N/A   Mostly Cloudy
1:53 AM 48.9 °F - 30.9 °F 50% 29.76 in 10.0 mi WNW 4.6 mph - N/A   Clear
2:53 AM 46.9 °F - 30.0 °F 52% 29.77 in 10.0 mi WSW 6.9 mph - N/A   Clear
3:53 AM 43.0 °F 38.2 °F 30.9 °F 62% 29.78 in 10.0 mi WNW 8.1 mph - N/A   Clear
4:53 AM 39.9 °F 34.5 °F 34.0 °F 79% 29.80 in 10.0 mi NW 8.1 mph - N/A   Clear
5:53 AM 39.0 °F 32.3 °F 35.1 °F 86% 29.85 in 7.0 mi NNW 10.4 mph - N/A   Clear
6:53 AM 37.9 °F 31.5 °F 35.1 °F 89% 29.88 in 7.0 mi WNW 9.2 mph - N/A   Clear
7:53 AM 37.9 °F 32.1 °F 35.1 °F 89% 29.90 in 5.0 mi WNW 8.1 mph - N/A   Clear
8:53 AM 41.0 °F 35.2 °F 36.0 °F 82% 29.91 in 6.0 mi West 9.2 mph - N/A   Haze
9:53 AM 46.0 °F 41.4 °F 37.9 °F 73% 29.93 in 9.0 mi West 9.2 mph - N/A   Clear
10:53 AM 50.0 °F - 37.0 °F 61% 29.92 in 10.0 mi WNW 11.5 mph - N/A   Clear
11:53 AM 52.0 °F - 37.0 °F 57% 29.91 in 10.0 mi WSW 9.2 mph 16.1 mph N/A   Clear
12:53 PM 55.0 °F - 36.0 °F 49% 29.87 in 10.0 mi Variable 5.8 mph - N/A   Clear
1:53 PM 57.0 °F - 35.1 °F 44% 29.84 in 10.0 mi Calm Calm - N/A   Clear
2:53 PM 57.9 °F - 35.1 °F 42% 29.83 in 10.0 mi SW 5.8 mph - N/A   Clear
3:53 PM 59.0 °F - 34.0 °F 39% 29.83 in 10.0 mi West 8.1 mph - N/A   Clear
6:53 PM 48.9 °F - 34.0 °F 56% 29.85 in 10.0 mi Calm Calm - N/A   Clear
7:53 PM 46.9 °F - 34.0 °F 61% 29.85 in 10.0 mi Calm Calm - N/A   Clear
8:53 PM 44.1 °F - 34.0 °F 68% 29.86 in 10.0 mi Calm Calm - N/A   Clear
9:53 PM 42.1 °F - 34.0 °F 73% 29.86 in 10.0 mi Calm Calm - N/A   Scattered Clouds
10:53 PM 41.0 °F - 33.1 °F 73% 29.85 in 10.0 mi Calm Calm - N/A   Overcast
11:53 PM 39.0 °F 36.8 °F 32.0 °F 76% 29.83 in 10.0 mi SE 3.5 mph - N/A   Overcast